Regional Weather Roundup
Issued by NWS

Home | Current Version | Previous Version | Graphics & Text | Print | Product List | Glossary On
Versions: 1 2 3 4 5 6 7 8 9 10 11 12 13 14 15 16 17 18 19 20 21 22 23 24 25 26 27 28 29 30 31 32 33 34
000
ASUS45 KSLC 211110
RWRUT

UTAH REGIONAL WEATHER ROUNDUP
NATIONAL WEATHER SERVICE SALT LAKE CITY UT
500 AM MDT TUE OCT 21 2014

UTZ001>011-023>025-211200-

NORTHERN UTAH

CITY           SKY/WX    TMP DP  RH WIND       PRES   REMARKS
BRIGHAM CITY   MOCLDY    59  42  53 W3        29.85R
HILL AFB       MOCLDY    64  39  39 S15       29.88S
LOGAN          LGT RAIN  43  39  86 NW9       29.85F
OGDEN          MOCLDY    66  39  37 S15       29.85F
PROVO AIRPORT  CLOUDY    59  39  47 SE6       29.93S
SALT LAKE CITY MOCLDY    64  40  41 S17       29.87F
VERNAL         CLOUDY    46  38  73 W5        30.03S
WENDOVER       CLEAR     59  37  44 S15       29.83S
HEBER CITY     MOCLDY    45  37  76 CALM      29.98S
WEST JORDAN    PTCLDY    59  46  63 S10       29.90F

$$

UTZ012>022-026-027-211200-

SOUTHERN/CENTRAL UTAH

CITY           SKY/WX    TMP DP  RH WIND       PRES   REMARKS
BLANDING       MOCLDY    49  41  72 NE5       30.19S
BRYCE CANYON   PTCLDY    32  29  88 W5        30.15S WCI  27
CEDAR CITY     MOCLDY    55  38  52 S9        30.01F
DELTA          CLOUDY    58  37  45 S10       29.94S
HANKSVILLE       N/A     48  36  61 CALM      30.02R
MILFORD        MOCLDY    56  38  50 SW13      29.96F
MOAB/CYNLANDS  PTCLDY    59  41  51 SE7       29.99S
PRICE          MOCLDY    48  36  63 E3        30.05S
ST GEORGE      PTSUNNY   66  39  37 SE7       29.93R
KANAB            N/A     46  36  66 NE5       30.07S

$$

REGIONAL REPORTS     COLORADO/ARIZONA

CITY           SKY/WX    TMP DP  RH WIND       PRES   REMARKS
CRAIG, CO      MOCLDY    37  33  85 CALM      30.10F
GRAND JUNCTION CLOUDY    57  38  48 E14       30.04S
RIFLE          MOCLDY    44  37  76 SE3       30.09S
MONTROSE       CLOUDY    51  39  63 CALM      30.13R
CORTEZ         MOCLDY    53  42  66 NW5       30.14S
PAGE, AZ       NOT AVBL
GRAND CANYON   CLEAR     32  28  85 CALM      30.14F
KINGMAN        PTCLDY    59  42  53 SE3       29.96S
FLAGSTAFF      CLEAR     35  32  88 CALM      30.16F

$$

REGIONAL REPORTS    NEVADA/IDAHO/WYOMING

CITY           SKY/WX    TMP DP  RH WIND       PRES   REMARKS
LAS VEGAS, NV  PTCLDY    73  38  27 S14       29.81F
ELY            CLEAR     53  34  48 S10       29.98R
ELKO           CLOUDY    51  36  56 S6        29.96R
POCATELLO, ID  MOCLDY    66  37  34 S25G35    29.80R
BURLEY         LGT RAIN  51  40  65 W22G30    29.83R
EVANSTON, WY   PTCLDY    47  36  65 S10       30.03F
ROCK SPRINGS   PTCLDY    53  34  48 SW17      30.03F
KEMMERER       MOCLDY    45  32  61 W5        30.05S

$$



USA.gov is the U.S. government's official web portal to all federal, state and local government web resources and services.